Location: Potawatomi Wildlife Park
(41.2308°N, 86.1050°W)
Time: 17:42:46
(UTC-04:00)

Daily predictions for brighter satellites

Satellite Brightness Start Highest point End
(mag) Time Altitude Azimuth Time Altitude Azimuth Time Altitude Azimuth
Cosmos 1934 Rocket 4.0 20:38:46 10° S 20:44:52 74° E 20:51:08 10° N
Cosmos 1633 4.4 20:43:19 10° SSW 20:46:44 37° WNW 20:50:09 10° N
Cosmos 2208 Rocket 4.2 20:41:24 10° SSW 20:46:44 88° WNW 20:52:11 10° NNE
Lacrosse 5 2.6 20:43:48 10° NW 20:48:34 41° NE 20:53:21 10° ESE
Resurs 01 Rocket 2.0 20:49:18 10° S 20:53:42 70° WSW 20:58:10 10° NNW
Cosmos 1697 Rocket 3.0 20:57:04 10° S 21:02:20 42° ESE 21:07:39 10° NE
Cosmos 1743 4.4 20:59:55 10° SE 21:02:22 16° E 21:04:48 10° NE
Helios 1A 3.9 21:00:02 10° S 21:04:05 52° W 21:08:12 10° NNW
Cosmos 1461 4.2 21:06:01 10° NW 21:09:45 37° WSW 21:13:23 10° S
ERS-1 Rocket 3.9 21:08:34 11° SE 21:12:44 30° ENE 21:17:04 10° N
Cosmos 2278 4.5 21:09:20 10° SW 21:14:55 57° WNW 21:20:33 10° NNE
SL-16 R/B 4.1 21:16:08 10° E 21:16:08 10° E 21:16:11 10° E
RESURS DK-1 3.0 21:12:00 10° N 21:15:55 38° ENE 21:18:51 16° ESE
Cosmos 2150 Rocket 4.1 21:13:50 10° NNW 21:18:55 59° ENE 21:23:51 11° SSE
CZ-4 DEB 3.9 21:19:01 18° ESE 21:20:28 26° ENE 21:23:09 10° NNE
OTV 4 3.0 21:19:45 10° SW 21:21:03 12° SSW 21:22:20 10° S
Cosmos 1763 Rocket 4.2 21:20:00 10° SSE 21:24:20 29° E 21:28:40 10° NE
OAO 2 Rocket 3.9 21:20:16 10° WSW 21:24:57 41° S 21:28:14 18° ESE
USA 186 1.4 21:23:06 10° SSE 21:26:08 90° NE 21:28:58 10° NNW
Cosmos 1980 Rocket 2.6 21:21:05 10° S 21:26:20 41° ESE 21:31:37 10° NE
ALOS 2.6 21:21:46 10° S 21:26:26 71° WSW 21:31:06 10° NNW
H-2A R/B 3.0 21:25:48 10° S 21:29:40 74° WSW 21:33:38 10° NNW
Cosmos 2173 Rocket 4.3 21:25:30 10° SSE 21:31:32 47° E 21:37:33 10° NNE
Cosmos 1898 Rocket 3.5 21:26:50 10° NNW 21:32:10 82° ENE 21:37:06 12° SSE
H-2A R/B 3.2 21:37:54 22° E 21:38:59 25° ENE 21:42:23 10° NNE
Cosmos 2084 3.8 21:35:14 10° NW 21:39:16 60° WSW 21:42:28 17° SSE
FENGYUN 3A 4.2 21:34:22 10° S 21:39:38 59° W 21:44:57 10° NNW
DELTA 2 R/B (1) 4.3 21:35:15 10° W 21:40:29 43° SSW 21:43:49 21° SE
Cosmos 1656 4.1 21:36:08 10° SSW 21:41:43 67° WNW 21:47:16 10° NNE
Cosmos 1626 Rocket 4.2 21:37:31 10° NNW 21:41:50 56° W 21:46:05 10° S
Cosmos 468 Rocket 3.9 21:38:18 10° SSW 21:43:26 87° WNW 21:48:35 10° NNE
Cosmos 1666 4.2 21:45:23 20° ENE 21:45:23 20° ENE 21:47:30 10° NE
Cosmos 1975 3.9 21:42:56 10° SSW 21:46:54 47° W 21:50:53 10° N
CZ-3C R/B 4.3 21:02:36 10° W 21:47:40 31° SSW 21:55:35 13° SSE
Cosmos 2100 Rocket 3.9 21:42:12 10° S 21:48:25 71° E 21:54:37 10° NNE
Cosmos 841 Rocket 3.8 21:43:40 10° S 21:48:35 43° ESE 21:53:31 10° NNE
Tiangong 1 1.0 21:46:33 10° WNW 21:49:38 70° SSW 21:50:13 52° SE
Cosmos 2263 Rocket 3.9 21:47:36 10° N 21:51:04 16° NE 21:52:51 14° ENE
YAOGAN 11 4.1 21:48:04 20° SSE 21:51:09 77° ENE 21:55:36 10° N
Lacrosse 5 rocket 3.5 21:49:05 10° W 21:51:30 17° WSW 21:53:52 10° SSW
YAOGAN 6 4.2 21:53:36 20° ENE 21:53:36 20° ENE 21:56:06 10° NNE
Cosmos 1758 Rocket 4.1 21:50:43 10° N 21:54:46 37° ENE 21:55:32 34° ESE
Cosmos 1500 3.8 21:51:56 10° SSW 21:55:36 56° W 21:59:20 10° N
Cosmos 1814 Rocket 4.1 21:50:54 10° SSW 21:56:14 80° WNW 22:01:34 10° NNE
Cosmos 2227 Rocket 4.2 21:52:06 10° NW 21:56:41 26° WSW 22:01:16 10° SSW
ASTEX 1 4.0 21:53:29 10° NNE 21:58:05 35° E 21:58:58 33° ESE
Cosmos 2322 Rocket 2.9 22:00:47 29° E 22:00:47 29° E 22:05:21 10° NE
Cosmos 2061 Rocket 3.9 21:55:29 10° S 22:01:47 81° E 22:08:03 10° N
Cosmos 1340 2.6 21:59:21 10° N 22:03:09 67° E 22:03:55 51° SE
deb Chang Zheng 4 3.8 22:00:37 10° NNE 22:04:54 46° E 22:05:36 42° SE
Cosmos 2297 Rocket 4.0 22:06:55 10° NW 22:11:37 27° WSW 22:16:18 10° SSW
Meteor 2-9 Rocket 4.3 22:12:18 37° SE 22:13:57 50° E 22:19:10 10° NNE
MetOp-A 4.4 22:12:56 40° ESE 22:14:23 51° ENE 22:19:34 10° N
Cosmos 1459 Rocket 4.0 22:08:38 10° S 22:14:40 78° W 22:20:49 10° N
Cosmos 2360 4.1 22:11:42 10° SSW 22:17:24 77° ESE 22:23:08 10° NNE
Meteor 1-21 4.2 22:13:21 10° N 22:19:10 90° W 22:22:11 30° S
Cosmos 1725 Rocket 4.0 22:18:11 35° SSE 22:20:36 56° E 22:26:42 10° NNE
Cosmos 2058 Rocket 3.0 22:22:24 61° SE 22:22:49 65° E 22:27:18 10° NNE
Cosmos 2227 4.1 22:17:03 10° NNW 22:22:50 89° WSW 22:24:54 42° SSE
Cosmos 1606 Rocket 3.7 22:22:36 26° SSW 22:25:01 74° W 22:29:29 10° N
Cosmos 1939 Rocket 3.4 22:24:09 37° SSW 22:25:33 58° W 22:29:42 10° NNW
Envisat 3.2 22:26:38 33° S 22:28:56 68° WSW 22:34:01 10° NNW
Lacrosse 5 2.9 22:26:51 10° WNW 22:31:31 37° SW 22:32:58 31° SSW
BREEZE-M DEB (TANK) 4.3 22:30:52 10° NW 22:35:04 79° NNE 22:39:46 35° ESE
BREEZE-M DEB (TANK) 2.4 22:33:19 10° WNW 22:35:26 68° NW 22:35:26 68° NW
Cosmos 1743 4.4 22:34:26 10° SW 22:37:55 33° WNW 22:41:30 10° NNW
SPOT 5 2.8 22:38:12 64° S 22:38:59 87° WSW 22:43:47 10° NNW
Cosmos 2233 Rocket 4.1 22:43:02 51° E 22:43:09 51° E 22:49:10 10° NNE
Cosmos 1726 Rocket 4.4 22:46:06 32° SW 22:47:43 49° W 22:52:00 10° N
ERS-1 Rocket 4.5 22:48:35 19° SSW 22:51:25 31° W 22:55:53 10° NW
H-2A R/B 3.1 22:56:29 32° NE 22:56:29 32° NE 22:59:51 10° N
ARGOS 3.0 22:57:44 75° ENE 22:57:44 75° ENE 23:03:02 10° N
Terra 3.4 22:59:15 25° NE 22:59:15 25° NE 23:01:56 10° N
SL-16 R/B 2.0 22:57:53 79° S 22:58:13 85° ESE 23:03:55 10° NNE
NOAA 11 4.0 22:58:49 78° ENE 22:58:50 78° ENE 23:04:19 10° N
Cosmos 1980 Rocket 4.0 23:05:28 10° WSW 23:10:25 30° NW 23:15:26 10° N
Cosmos 2360 Rocket 4.0 23:14:22 18° NE 23:14:22 18° NE 23:15:57 10° NE
BREEZE-M DEB (TANK) 4.4 22:38:22 10° WNW 23:12:11 78° NNE 23:14:38 51° E
SPOT 1/Viking Rocket 3.7 23:15:02 69° WNW 23:15:02 69° WNW 23:19:54 10° NNW
H-2A R/B 3.8 23:15:02 26° W 23:15:02 26° W 23:18:26 10° NW
Cosmos 2228 4.4 23:20:01 36° NW 23:20:01 36° NW 23:23:16 10° N
Cosmos 1125 Rocket 4.1 23:15:22 10° NNW 23:20:07 50° W 23:20:07 50° W
USA 215 3.7 23:21:34 46° ENE 23:22:35 50° NNE 23:28:51 10° NW
SL-19 R/B 4.5 23:19:30 10° N 23:24:51 60° WNW 23:24:57 60° WNW
BREEZE-M DEB (TANK) 3.5 23:18:52 10° W 23:27:44 58° NNW 23:27:44 58° NNW
BREEZE-M DEB (TANK) 3.6 23:15:38 10° WNW 23:31:42 85° NNE 23:31:51 84° ENE
Cosmos 2263 Rocket 2.6 23:30:06 10° NNW 23:34:32 58° NW 23:34:32 58° NW
Cosmos 540 Rocket 4.4 23:39:10 45° NW 23:39:10 45° NW 23:43:24 10° N
Cosmos 2322 Rocket 3.4 23:42:28 30° W 23:44:25 39° WNW 23:49:41 10° N
Meteor 2-5 Rocket 4.4 23:45:32 10° NNW 23:50:21 54° NW 23:50:21 54° NW
